Voltar ao catálogo

NANOSAT(1)

AtivoCiênciaSSO
NORAD 28493·PAYLOAD·🇪🇸 Spain

Lançado Dec 18, 2004 de Guiana Space Centre

Loading…

Próximas Passagens (próximas 24 horas)

TLE

AtualizadoSource: Space-Track

Época: Sep 14, 2026, 07:55 UTC

1 28493U 04049B   26257.33026616  .00000747  00000-0  10531-3 0  9993
2 28493  98.2407  36.2450 0004311  24.0739 336.0673 14.80307728168634

Acompanhe NANOSAT(1) em tempo real com AllMySat

Download on the App Store